Location: *
(52.2090°N, 4.1550°W)
Time: 02:13:21
(UTC+00:00)

Cosmos 1500 Rocket - Pass Details

Date: 25 October 2019
Orbit: 603 x 631 km, 82.5° (Epoch: 17 November)

Event Time Altitude Azimuth Distance (km) Brightness Sun altitude
Rises 19:55:28 0° 349° (N) 2,938 7.4 -27.0°
Reaches altitude 10° 19:57:43 10° 349° (N) 2,023 6.5 -27.4°
Enters shadow 20:00:13 33° 351° (N) 1,071 4.9 -27.7°
